• In Belarus
  • List of Countries
  • For 7 days
  • Water Temperature
  • Satellite Maps
  • Weather Map
  • Weather Widgets
  • user-avatar
    Login

    Hourly Weather Abovyan

    Today, 20 October, Saturday

    Time Temperature Precipitation Wind Pressure Humidity
    00:00 +13°C° 0 mm 1 mps 673 mmHg 53%
    01:00 +13°C° 0.1 mm 1 mps 673 mmHg 53%
    02:00 +13°C° 0.1 mm 1 mps 673 mmHg 52%
    03:00 +13°C° 0 mm 1 mps 673 mmHg 51%
    04:00 +12°C° 0.1 mm 1 mps 673 mmHg 50%
    05:00 +12°C° 0.1 mm 1 mps 673 mmHg 49%
    06:00 +12°C° 0.1 mm 1 mps 673 mmHg 48%
    07:00 +14°C° 0.1 mm 1 mps 673 mmHg 46%
    08:00 +16°C° 0.1 mm 1 mps 673 mmHg 45%
    09:00 +19°C° 0 mm 1 mps 674 mmHg 45%
    10:00 +19°C° 0.1 mm 2 mps 674 mmHg 45%
    11:00 +20°C° 0.1 mm 2 mps 673 mmHg 44%
    12:00 +20°C° 0.1 mm 2 mps 673 mmHg 43%
    13:00 +21°C° 0.2 mm 2 mps 673 mmHg 43%
    14:00 +21°C° 0.2 mm 2 mps 673 mmHg 43%
    15:00 +21°C° 0.2 mm 2 mps 672 mmHg 43%
    16:00 +19°C° 0.3 mm 2 mps 672 mmHg 48%
    17:00 +18°C° 0.3 mm 2 mps 672 mmHg 52%
    18:00 +16°C° 0.3 mm 1 mps 671 mmHg 57%
    19:00 +16°C° 0.3 mm 1 mps 671 mmHg 59%
    20:00 +15°C° 0.3 mm 1 mps 672 mmHg 60%
    21:00 +15°C° 0.3 mm 1 mps 672 mmHg 61%
    22:00 +14°C° 0.2 mm 1 mps 671 mmHg 62%
    23:00 +14°C° 0.2 mm 1 mps 671 mmHg 63%

    Tomorrow, 21 October, Sunday

    Time Temperature Precipitation Wind Pressure Humidity
    00:00 +14°C° 0.2 mm 1 mps 671 mmHg 64%
    01:00 +13°C° 0.1 mm 1 mps 671 mmHg 65%
    02:00 +13°C° 0.1 mm 1 mps 671 mmHg 66%
    03:00 +13°C° 0.1 mm 1 mps 671 mmHg 67%
    04:00 +13°C° 0 mm 1 mps 671 mmHg 68%
    05:00 +12°C° 0 mm 1 mps 671 mmHg 69%
    06:00 +12°C° 0 mm 1 mps 671 mmHg 71%
    07:00 +14°C° 0 mm 1 mps 671 mmHg 64%
    08:00 +16°C° 0 mm 2 mps 672 mmHg 58%
    09:00 +17°C° 0 mm 2 mps 672 mmHg 51%
    10:00 +18°C° 0 mm 2 mps 672 mmHg 48%
    11:00 +19°C° 0 mm 2 mps 672 mmHg 44%
    12:00 +21°C° 0 mm 3 mps 672 mmHg 41%
    13:00 +21°C° 0 mm 3 mps 672 mmHg 40%
    14:00 +21°C° 0 mm 3 mps 672 mmHg 40%
    15:00 +21°C° 0 mm 3 mps 671 mmHg 39%
    16:00 +19°C° 0.1 mm 3 mps 671 mmHg 43%
    17:00 +18°C° 0.1 mm 2 mps 671 mmHg 47%
    18:00 +17°C° 0.1 mm 2 mps 671 mmHg 51%
    19:00 +16°C° 0.1 mm 2 mps 671 mmHg 52%
    20:00 +16°C° 0.1 mm 1 mps 671 mmHg 53%
    21:00 +15°C° 0.1 mm 1 mps 671 mmHg 54%
    22:00 +15°C° 0.1 mm 1 mps 671 mmHg 55%
    23:00 +14°C° 0.1 mm 1 mps 671 mmHg 56%

    Day after tomorrow, 22 October, Monday

    Time Temperature Precipitation Wind Pressure Humidity
    00:00 +14°C° 0.1 mm 1 mps 672 mmHg 56%
    01:00 +14°C° 0.2 mm 1 mps 671 mmHg 58%
    02:00 +14°C° 0.2 mm 1 mps 671 mmHg 59%
    03:00 +13°C° 0.2 mm 1 mps 671 mmHg 60%
    04:00 +13°C° 0.1 mm 1 mps 671 mmHg 62%
    05:00 +13°C° 0.1 mm 1 mps 671 mmHg 65%
    06:00 +12°C° 0.1 mm 1 mps 671 mmHg 67%
    07:00 +14°C° 0.2 mm 1 mps 672 mmHg 63%
    08:00 +15°C° 0.2 mm 1 mps 672 mmHg 59%
    09:00 +18°C° 0.2 mm 1 mps 673 mmHg 54%
    10:00 +17°C° 0.2 mm 2 mps 673 mmHg 53%
    11:00 +18°C° 0.2 mm 2 mps 673 mmHg 52%
    12:00 +19°C° 0.2 mm 2 mps 673 mmHg 50%
    13:00 +19°C° 0.1 mm 2 mps 672 mmHg 49%
    14:00 +19°C° 0.1 mm 2 mps 672 mmHg 48%
    15:00 +20°C° 0.1 mm 2 mps 672 mmHg 48%
    16:00 +18°C° 0.1 mm 2 mps 672 mmHg 53%
    17:00 +18°C° 0.1 mm 1 mps 672 mmHg 58%
    18:00 +15°C° 0.1 mm 1 mps 671 mmHg 63%
    19:00 +15°C° 0.2 mm 1 mps 672 mmHg 64%
    20:00 +15°C° 0.2 mm 1 mps 672 mmHg 65%
    21:00 +14°C° 0.2 mm 1 mps 672 mmHg 66%
    22:00 +14°C° 0.3 mm 1 mps 672 mmHg 66%
    23:00 +14°C° 0.3 mm 1 mps 672 mmHg 67%

    23 October, Tuesday

    Time Temperature Precipitation Wind Pressure Humidity
    00:00 +14°C° 0.3 mm 1 mps 672 mmHg 68%
    01:00 +13°C° 0.1 mm 1 mps 672 mmHg 69%
    02:00 +13°C° 0.1 mm 1 mps 672 mmHg 71%
    03:00 +13°C° 0.1 mm 1 mps 672 mmHg 72%
    04:00 +12°C° 0 mm 1 mps 672 mmHg 72%
    05:00 +12°C° 0 mm 1 mps 672 mmHg 72%
    06:00 +12°C° 0 mm 1 mps 672 mmHg 72%
    07:00 +14°C° 0 mm 1 mps 672 mmHg 66%
    08:00 +15°C° 0 mm 2 mps 673 mmHg 60%
    09:00 +17°C° 0 mm 2 mps 673 mmHg 53%
    10:00 +18°C° 0 mm 2 mps 673 mmHg 51%
    11:00 +19°C° 0 mm 3 mps 673 mmHg 48%
    12:00 +20°C° 0 mm 3 mps 673 mmHg 46%
    13:00 +20°C° 0.2 mm 3 mps 672 mmHg 45%
    14:00 +20°C° 0.2 mm 3 mps 672 mmHg 45%
    15:00 +20°C° 0.2 mm 3 mps 672 mmHg 45%
    16:00 +18°C° 0.3 mm 3 mps 672 mmHg 50%
    17:00 +17°C° 0.3 mm 2 mps 672 mmHg 55%
    18:00 +15°C° 0.3 mm 2 mps 671 mmHg 60%
    19:00 +15°C° 0.1 mm 1 mps 672 mmHg 61%
    20:00 +15°C° 0.1 mm 1 mps 672 mmHg 62%
    21:00 +14°C° 0.1 mm 1 mps 672 mmHg 63%
    22:00 +14°C° 0 mm 1 mps 672 mmHg 64%
    23:00 +13°C° 0 mm 1 mps 672 mmHg 65%

    24 October, Wednesday

    Time Temperature Precipitation Wind Pressure Humidity
    00:00 +13°C° 0 mm 1 mps 671 mmHg 65%
    01:00 +13°C° 0 mm 1 mps 671 mmHg 66%
    02:00 +13°C° 0 mm 1 mps 671 mmHg 66%
    03:00 +12°C° 0 mm 1 mps 671 mmHg 66%
    04:00 +12°C° 0 mm 2 mps 671 mmHg 66%
    05:00 +12°C° 0 mm 2 mps 671 mmHg 66%
    06:00 +12°C° 0 mm 2 mps 670 mmHg 66%
    07:00 +14°C° 0 mm 2 mps 671 mmHg 62%
    08:00 +14°C° 0 mm 3 mps 671 mmHg 57%
    09:00 +17°C° 0 mm 3 mps 671 mmHg 52%
    10:00 +17°C° 0 mm 3 mps 671 mmHg 51%
    11:00 +18°C° 0 mm 4 mps 671 mmHg 49%
    12:00 +19°C° 0 mm 4 mps 670 mmHg 48%
    13:00 +19°C° 0.3 mm 4 mps 670 mmHg 49%
    14:00 +18°C° 0.3 mm 4 mps 669 mmHg 51%
    15:00 +18°C° 0.3 mm 4 mps 668 mmHg 53%
    16:00 +17°C° 0.3 mm 3 mps 668 mmHg 56%
    17:00 +16°C° 0.3 mm 3 mps 668 mmHg 59%
    18:00 +14°C° 0.3 mm 3 mps 668 mmHg 62%
    19:00 +14°C° 0.4 mm 3 mps 668 mmHg 63%
    20:00 +14°C° 0.4 mm 3 mps 668 mmHg 64%
    21:00 +14°C° 0.4 mm 3 mps 668 mmHg 65%
    22:00 +14°C° 0.3 mm 3 mps 667 mmHg 67%
    23:00 +13°C° 0.3 mm 3 mps 667 mmHg 69%

    25 October, Thursday

    Time Temperature Precipitation Wind Pressure Humidity
    00:00 +13°C° 0.3 mm 3 mps 666 mmHg 70%
    01:00 +13°C° 0.3 mm 3 mps 666 mmHg 71%
    02:00 +13°C° 0.3 mm 3 mps 665 mmHg 71%
    03:00 +13°C° 0.3 mm 3 mps 665 mmHg 71%
    04:00 +13°C° 1 mm 3 mps 665 mmHg 71%
    05:00 +13°C° 1 mm 3 mps 666 mmHg 72%
    06:00 +13°C° 1 mm 3 mps 666 mmHg 73%
    07:00 +14°C° 0.1 mm 3 mps 666 mmHg 69%
    08:00 +15°C° 0.1 mm 4 mps 666 mmHg 65%
    09:00 +17°C° 0.1 mm 4 mps 666 mmHg 62%
    10:00 +17°C° 0.1 mm 5 mps 666 mmHg 58%
    11:00 +19°C° 0.1 mm 5 mps 665 mmHg 55%
    12:00 +20°C° 0.1 mm 6 mps 665 mmHg 51%
    13:00 +20°C° 0.4 mm 5 mps 664 mmHg 50%
    14:00 +20°C° 0.4 mm 5 mps 664 mmHg 49%
    15:00 +20°C° 0.4 mm 5 mps 663 mmHg 48%
    16:00 +19°C° 0.4 mm 5 mps 663 mmHg 51%
    17:00 +18°C° 0.4 mm 4 mps 663 mmHg 55%
    18:00 +17°C° 0.4 mm 3 mps 663 mmHg 58%
    19:00 +17°C° 0.3 mm 3 mps 663 mmHg 59%
    20:00 +16°C° 0.3 mm 3 mps 663 mmHg 60%
    21:00 +16°C° 0.3 mm 3 mps 663 mmHg 60%
    22:00 +15°C° 0.3 mm 4 mps 663 mmHg 62%
    23:00 +14°C° 0.3 mm 4 mps 663 mmHg 64%
    Show more